Showing default

BEIDOU 2 G8, 44231

Orbit data source: Space-Track

BEIDOU 2 G8, 44231 is a payload satellite owned by CNSA (CN) in GEO that was launched on Fri, 17 May 2019 UTC via a CHANG ZHENG 3C launch vehicle from the Xichang Space Center, China (XSC). Payload-class satellites include a variety of spacecraft equipped with specific instruments for various scientific and technological missions. These include communications satellites like Starlink; space stations such as the ISS; scientific satellites like the Hubble; Earth observation satellites from companies like Planet Labs, Umbra, and HawkEye 360; GPS; miniature CubeSats for education and research; and military/defense satellites.

Not visible in the next 10 days
Identifier
44231, 2019-027A
Orbit
GEO
Country
Flag of CNCN / PRC
Related business
Manufacturer
CAST
Mission
Operational Defense Navigation
Bus & Motor
DFH-3B, FY-25
Mass
~3,060 kg wet, 1,700 kg dry
Launch date (UTC)
2019-05-17 (7 years ago)
Launch vehicle
CHANG ZHENG 3C
Launch site
Xichang Space Center, China (XSC)
Object type
Payload
Rocket body
Debris
Shape & HBR
Box + 2 Pan, 9.0 m
Radar Cross Section
13.998 m², Large (>1 m²)

Expand to show TLE details & history
Last TLE update: 10 hours ago

TLE from 10 hours ago
0 BEIDOU 2 G8
1 44231U 19027A   26071.81425899 -.00000246  00000-0  00000-0 0  9998
2 44231   1.4128  74.2589 0011490 274.3988 259.4146  1.00274335 25118
Epoch: 2026-03-12T19:32Z
TLE epoch observation values (Epoch: 2026-03-12T19:32:31.976Z)
Latitude
0.17463°
Longitude
144.36991°
Altitude
35,794.306 km
Speed
3.074 km/s
True Right ascension
16h 31m 50s
True Declination
0° 10' 28"
Sunlit
Object was in daylight at epoch
Visualization orbit readout
Latitude
Unknown
Longitude
Unknown
Altitude
Unknown
Speed
Unknown
Apparent Right ascension
Unknown
Apparent Declination
Unknown
Sunlit
N/A
Visualization observer readout
Local Sidereal Time
10:04:17
Azimuth
Unknown
Elevation
Unknown
Doppler factor
Unknown
Orbital elements
Apogee altitude
35,835.397 km
Perigee altitude
35,738.502 km
Semi-major axis
42,165.087 km
Eccentricity
0.00115
Inclination
1.4128°
RAAN
74.2589°
Arg. of periapsis
274.3988°
True anomaly
259.28521°
Mean anomaly
259.4146°
Eccentric anomaly
259.3499°
Mean motion
0.25068 °/min
Orbital period
1,436.11 mins
BSTAR
0
Loading maneuver chart data...
Computing Atmospheric mass density...
Loading historical data...
Loading historical data...
Loading historical data...
Loading historical data...
Loading historical data...
Loading historical data...
Loading historical data...
Other satellites on launch #27 in the year 2019 (2019-05-17 UTC)

Documentation

Showing up to 5 results
|